{"data":{"norad_id":38860,"epoch":"2026-09-20T04:53:14.439840Z","epoch_age_seconds":54753,"freshness":"FRESH","line1":"1 38860U 12056A   26263.20363935  .00000657  00000+0  81570-4 0  9991","line2":"2 38860  97.6836 231.7867 0024234 307.0517  52.8482 14.85648876713690","mean_motion":14.85648876,"eccentricity":0.0024234,"inclination_deg":97.6836,"raan_deg":231.7867,"arg_perigee_deg":307.0517,"mean_anomaly_deg":52.8482,"bstar":8.157e-5,"rev_number":71369,"period_min":96.927344223966,"perigee_km":594.61109327393,"apogee_km":628.48870774331,"semimajor_km":6989.6869005086,"source":"CELESTRAK","updated_at":"2026-09-20T09:00:13.866759Z"}}